Back to Top

Language: 

My Weather Underground Personal Weather Station Historical Data with Graphs...

Delerius Weather Station Historical Data
Daily Summary for March 19, 2017 Units:  English    Metric   Both
« Previous Day
Next Day »
Daily Weekly Monthly Yearly Custom
  High: Low: Average:
Temperature: 58.6 °F 49.6 °F 54.3 °F
Dew Point: 51.8 °F 46.0 °F 49.5 °F
Humidity: 93 % 77 % 84 %
Wind Speed: 25.0 mph 0.0 mph 12.6 mph
Wind Gust: 41.0 mph - -
Wind:- - WSW
Pressure: 29.68 in 29.52 in -
Precipitation: 0.01 in    
Historical Graphs
 
 
Tabular Data for March 19, 2017
Time Temperature Dew Point Pressure Wind Wind Speed Wind Gust Humidity Rainfall Rate (Hourly) solar Conditions
00:04 54.1 °F 51.3 °F 29.68 in WSW 11.0 mph 23.0 mph 90 % 0.00 in 0 W/m2
00:09 54.3 °F 51.4 °F 29.68 in WSW 11.0 mph 22.0 mph 90 % 0.00 in 0 W/m2
00:14 54.5 °F 51.6 °F 29.67 in WSW 13.0 mph 22.0 mph 90 % 0.00 in 0 W/m2
00:19 54.7 °F 51.5 °F 29.67 in WSW 12.0 mph 22.0 mph 89 % 0.00 in 0 W/m2
00:24 54.7 °F 51.5 °F 29.67 in WSW 11.0 mph 20.0 mph 89 % 0.00 in 0 W/m2
00:29 54.9 °F 51.7 °F 29.67 in WSW 11.0 mph 22.0 mph 89 % 0.00 in 0 W/m2
00:34 54.9 °F 51.4 °F 29.67 in WSW 11.0 mph 22.0 mph 88 % 0.00 in 0 W/m2
00:39 54.9 °F 51.4 °F 29.67 in WSW 12.0 mph 24.0 mph 88 % 0.00 in 0 W/m2
00:45 55.0 °F 51.2 °F 29.66 in WSW 14.0 mph 24.0 mph 87 % 0.00 in 0 W/m2
00:50 55.2 °F 51.4 °F 29.66 in WSW 14.0 mph 25.0 mph 87 % 0.00 in 0 W/m2
00:55 55.2 °F 51.4 °F 29.66 in WSW 13.0 mph 25.0 mph 87 % 0.00 in 0 W/m2
01:00 55.2 °F 51.4 °F 29.66 in WSW 13.0 mph 24.0 mph 87 % 0.00 in 0 W/m2
01:05 55.2 °F 51.4 °F 29.67 in WSW 11.0 mph 20.0 mph 87 % 0.00 in 0 W/m2
01:10 55.2 °F 51.4 °F 29.67 in WSW 11.0 mph 19.0 mph 87 % 0.00 in 0 W/m2
01:15 55.2 °F 51.1 °F 29.66 in WSW 11.0 mph 20.0 mph 86 % 0.00 in 0 W/m2
01:20 55.2 °F 51.1 °F 29.66 in WSW 11.0 mph 22.0 mph 86 % 0.00 in 0 W/m2
01:25 55.2 °F 51.1 °F 29.67 in WSW 12.0 mph 22.0 mph 86 % 0.00 in 0 W/m2
01:30 55.2 °F 51.1 °F 29.66 in West 13.0 mph 21.0 mph 86 % 0.00 in 0 W/m2
01:35 55.2 °F 51.1 °F 29.66 in WSW 11.0 mph 21.0 mph 86 % 0.00 in 0 W/m2
01:45 55.2 °F 50.8 °F 29.66 in WSW 13.0 mph 24.0 mph 85 % 0.00 in 0 W/m2
01:50 55.2 °F 50.5 °F 29.66 in WSW 14.0 mph 24.0 mph 84 % 0.00 in 0 W/m2
01:55 55.2 °F 50.5 °F 29.65 in WSW 16.0 mph 27.0 mph 84 % 0.00 in 0 W/m2
02:00 55.2 °F 50.5 °F 29.64 in WSW 16.0 mph 27.0 mph 84 % 0.00 in 0 W/m2
02:10 55.0 °F 50.3 °F 29.64 in WSW 17.0 mph 28.0 mph 84 % 0.00 in 0 W/m2
02:15 54.9 °F 50.4 °F 29.63 in WSW 16.0 mph 28.0 mph 85 % 0.00 in 0 W/m2
02:20 54.7 °F 50.3 °F 29.63 in WSW 14.0 mph 24.0 mph 85 % 0.00 in 0 W/m2
02:25 54.7 °F 49.9 °F 29.63 in WSW 14.0 mph 22.0 mph 84 % 0.00 in 0 W/m2
02:30 54.5 °F 49.8 °F 29.63 in WSW 14.0 mph 23.0 mph 84 % 0.00 in 0 W/m2
02:35 54.3 °F 49.9 °F 29.63 in WSW 13.0 mph 23.0 mph 85 % 0.00 in 0 W/m2
02:40 54.1 °F 49.7 °F 29.63 in WSW 12.0 mph 23.0 mph 85 % 0.00 in 0 W/m2
02:42 54.1 °F 49.7 °F 29.63 in WSW 12.0 mph 23.0 mph 85 % 0.00 in 0 W/m2
02:47 54.0 °F 49.6 °F 29.63 in WSW 13.0 mph 25.0 mph 85 % 0.00 in 0 W/m2
02:52 54.0 °F 49.6 °F 29.63 in WSW 13.0 mph 25.0 mph 85 % 0.00 in 0 W/m2
02:57 54.0 °F 49.6 °F 29.62 in WSW 14.0 mph 26.0 mph 85 % 0.00 in 0 W/m2
03:02 54.0 °F 49.6 °F 29.62 in WSW 14.0 mph 26.0 mph 85 % 0.00 in 0 W/m2
03:07 54.0 °F 49.6 °F 29.62 in WSW 13.0 mph 21.0 mph 85 % 0.00 in 0 W/m2
03:12 54.0 °F 49.2 °F 29.62 in WSW 15.0 mph 26.0 mph 84 % 0.00 in 0 W/m2
03:17 54.0 °F 49.2 °F 29.62 in WSW 15.0 mph 26.0 mph 84 % 0.00 in 0 W/m2
03:22 54.0 °F 49.2 °F 29.62 in WSW 16.0 mph 31.0 mph 84 % 0.00 in 0 W/m2
03:27 54.0 °F 49.2 °F 29.62 in West 16.0 mph 31.0 mph 84 % 0.01 in 0 W/m2
03:32 54.0 °F 49.6 °F 29.61 in West 14.0 mph 25.0 mph 85 % 0.01 in 0 W/m2
03:37 53.8 °F 49.4 °F 29.61 in WSW 13.0 mph 25.0 mph 85 % 0.01 in 0 W/m2
03:42 53.8 °F 49.4 °F 29.62 in WSW 14.0 mph 25.0 mph 85 % 0.01 in 0 W/m2
03:47 53.8 °F 49.4 °F 29.61 in WSW 15.0 mph 30.0 mph 85 % 0.01 in 0 W/m2
03:52 53.8 °F 49.4 °F 29.61 in WSW 15.0 mph 30.0 mph 85 % 0.01 in 0 W/m2
03:58 53.6 °F 49.2 °F 29.61 in WSW 14.0 mph 25.0 mph 85 % 0.01 in 0 W/m2
04:03 53.4 °F 49.0 °F 29.61 in WSW 15.0 mph 26.0 mph 85 % 0.01 in 0 W/m2
04:08 53.4 °F 49.0 °F 29.60 in WSW 16.0 mph 26.0 mph 85 % 0.01 in 0 W/m2
04:13 53.4 °F 49.0 °F 29.60 in WSW 14.0 mph 24.0 mph 85 % 0.01 in 0 W/m2
04:18 53.4 °F 49.0 °F 29.60 in WSW 13.0 mph 26.0 mph 85 % 0.01 in 0 W/m2
04:23 53.4 °F 49.0 °F 29.60 in WSW 12.0 mph 26.0 mph 85 % 0.00 in 0 W/m2
04:28 53.4 °F 49.0 °F 29.60 in WSW 13.0 mph 24.0 mph 85 % 0.00 in 0 W/m2
04:33 53.2 °F 48.8 °F 29.60 in WSW 15.0 mph 28.0 mph 85 % 0.00 in 0 W/m2
04:38 53.2 °F 48.8 °F 29.61 in WSW 17.0 mph 29.0 mph 85 % 0.00 in 0 W/m2
04:43 53.2 °F 48.8 °F 29.61 in WSW 18.0 mph 31.0 mph 85 % 0.00 in 0 W/m2
04:48 53.2 °F 48.8 °F 29.60 in WSW 16.0 mph 31.0 mph 85 % 0.00 in 0 W/m2
04:53 53.1 °F 48.7 °F 29.60 in WSW 16.0 mph 28.0 mph 85 % 0.00 in 0 W/m2
04:58 53.1 °F 48.7 °F 29.60 in WSW 16.0 mph 28.0 mph 85 % 0.00 in 0 W/m2
05:03 52.9 °F 48.5 °F 29.61 in WSW 14.0 mph 25.0 mph 85 % 0.00 in 0 W/m2
05:08 52.9 °F 48.5 °F 29.60 in WSW 14.0 mph 25.0 mph 85 % 0.00 in 0 W/m2
05:13 52.9 °F 48.5 °F 29.60 in WSW 14.0 mph 27.0 mph 85 % 0.00 in 0 W/m2
05:18 52.9 °F 48.5 °F 29.60 in WSW 15.0 mph 27.0 mph 85 % 0.00 in 0 W/m2
05:23 52.9 °F 48.5 °F 29.60 in WSW 16.0 mph 24.0 mph 85 % 0.00 in 0 W/m2
05:28 52.9 °F 48.5 °F 29.60 in WSW 15.0 mph 25.0 mph 85 % 0.00 in 0 W/m2
05:33 52.7 °F 48.3 °F 29.60 in WSW 14.0 mph 25.0 mph 85 % 0.00 in 0 W/m2
05:38 52.7 °F 48.3 °F 29.60 in WSW 14.0 mph 24.0 mph 85 % 0.00 in 0 W/m2
05:43 52.5 °F 48.1 °F 29.60 in WSW 14.0 mph 25.0 mph 85 % 0.00 in 0 W/m2
05:48 52.5 °F 48.1 °F 29.60 in WSW 12.0 mph 25.0 mph 85 % 0.00 in 0 W/m2
05:53 52.5 °F 48.1 °F 29.60 in WSW 13.0 mph 24.0 mph 85 % 0.00 in 0 W/m2
05:58 52.5 °F 48.5 °F 29.60 in WSW 15.0 mph 24.0 mph 86 % 0.00 in 0 W/m2
06:03 52.3 °F 48.3 °F 29.60 in WSW 14.0 mph 24.0 mph 86 % 0.00 in 0 W/m2
06:08 52.3 °F 48.3 °F 29.60 in WSW 15.0 mph 30.0 mph 86 % 0.00 in 0 W/m2
06:13 52.3 °F 48.3 °F 29.60 in WSW 17.0 mph 30.0 mph 86 % 0.00 in 0 W/m2
06:18 52.3 °F 48.3 °F 29.60 in WSW 17.0 mph 30.0 mph 86 % 0.00 in 0 W/m2
06:23 52.3 °F 48.3 °F 29.60 in WSW 16.0 mph 28.0 mph 86 % 0.00 in 5 W/m2
06:28 52.2 °F 48.1 °F 29.60 in WSW 15.0 mph 27.0 mph 86 % 0.00 in 5 W/m2
06:33 52.2 °F 48.1 °F 29.60 in WSW 14.0 mph 23.0 mph 86 % 0.00 in 7 W/m2
06:38 52.2 °F 48.1 °F 29.61 in WSW 14.0 mph 25.0 mph 86 % 0.00 in 7 W/m2
06:43 52.2 °F 48.1 °F 29.60 in WSW 14.0 mph 25.0 mph 86 % 0.00 in 7 W/m2
06:48 52.3 °F 48.3 °F 29.60 in WSW 13.0 mph 25.0 mph 86 % 0.00 in 11 W/m2
06:53 52.3 °F 48.3 °F 29.60 in WSW 13.0 mph 25.0 mph 86 % 0.00 in 30 W/m2
06:58 52.3 °F 48.3 °F 29.60 in WSW 15.0 mph 27.0 mph 86 % 0.00 in 18 W/m2
07:03 52.5 °F 48.5 °F 29.59 in WSW 15.0 mph 27.0 mph 86 % 0.00 in 26 W/m2
07:08 52.5 °F 48.5 °F 29.59 in WSW 13.0 mph 24.0 mph 86 % 0.00 in 28 W/m2
07:13 52.3 °F 48.3 °F 29.59 in WSW 14.0 mph 27.0 mph 86 % 0.00 in 30 W/m2
07:18 52.3 °F 48.3 °F 29.59 in WSW 14.0 mph 27.0 mph 86 % 0.00 in 19 W/m2
07:23 52.3 °F 48.3 °F 29.59 in SW 13.0 mph 23.0 mph 86 % 0.00 in 26 W/m2
07:28 52.5 °F 48.5 °F 29.58 in SW 14.0 mph 25.0 mph 86 % 0.00 in 19 W/m2
07:33 52.5 °F 48.5 °F 29.58 in SW 15.0 mph 30.0 mph 86 % 0.00 in 28 W/m2
07:38 52.5 °F 48.5 °F 29.58 in WSW 14.0 mph 30.0 mph 86 % 0.00 in 30 W/m2
07:43 52.5 °F 48.8 °F 29.58 in SW 13.0 mph 23.0 mph 87 % 0.00 in 19 W/m2
07:48 52.5 °F 48.5 °F 29.58 in SW 14.0 mph 28.0 mph 86 % 0.00 in 39 W/m2
07:53 52.5 °F 48.8 °F 29.58 in SW 15.0 mph 29.0 mph 87 % 0.00 in 44 W/m2
07:58 52.5 °F 48.8 °F 29.58 in SW 15.0 mph 29.0 mph 87 % 0.00 in 76 W/m2
08:03 52.5 °F 48.8 °F 29.58 in SW 16.0 mph 25.0 mph 87 % 0.00 in 65 W/m2
08:08 52.7 °F 48.9 °F 29.59 in SW 16.0 mph 30.0 mph 87 % 0.00 in 39 W/m2
08:13 52.7 °F 48.9 °F 29.58 in SW 14.0 mph 30.0 mph 87 % 0.00 in 49 W/m2
08:18 52.7 °F 48.9 °F 29.58 in WSW 13.0 mph 25.0 mph 87 % 0.00 in 58 W/m2
08:23 52.7 °F 48.9 °F 29.58 in WSW 14.0 mph 29.0 mph 87 % 0.00 in 81 W/m2
08:28 52.9 °F 49.1 °F 29.57 in SW 14.0 mph 29.0 mph 87 % 0.00 in 111 W/m2
08:33 53.1 °F 49.3 °F 29.57 in SW 12.0 mph 25.0 mph 87 % 0.00 in 121 W/m2
08:38 53.1 °F 49.3 °F 29.57 in SW 12.0 mph 21.0 mph 87 % 0.00 in 76 W/m2
08:43 53.2 °F 49.5 °F 29.57 in WSW 15.0 mph 27.0 mph 87 % 0.00 in 79 W/m2
08:48 53.4 °F 49.3 °F 29.58 in WSW 15.0 mph 28.0 mph 86 % 0.00 in 120 W/m2
08:59 53.6 °F 49.5 °F 29.57 in WSW 16.0 mph 28.0 mph 86 % 0.00 in 84 W/m2
09:01 53.6 °F 49.5 °F 29.57 in WSW 16.0 mph 28.0 mph 86 % 0.00 in 123 W/m2
09:06 53.8 °F 49.7 °F 29.57 in WSW 16.0 mph 28.0 mph 86 % 0.00 in 100 W/m2
09:11 54.0 °F 49.6 °F 29.57 in WSW 16.0 mph 26.0 mph 85 % 0.00 in 127 W/m2
09:16 54.0 °F 49.6 °F 29.58 in WSW 16.0 mph 26.0 mph 85 % 0.00 in 56 W/m2
09:21 54.1 °F 49.7 °F 29.57 in WSW 13.0 mph 23.0 mph 85 % 0.00 in 95 W/m2
09:26 54.0 °F 49.6 °F 29.57 in WSW 13.0 mph 22.0 mph 85 % 0.00 in 90 W/m2
09:31 54.1 °F 49.7 °F 29.57 in WSW 14.0 mph 24.0 mph 85 % 0.00 in 111 W/m2
09:36 54.1 °F 49.7 °F 29.57 in WSW 15.0 mph 28.0 mph 85 % 0.00 in 121 W/m2
09:41 54.1 °F 49.7 °F 29.57 in WSW 14.0 mph 28.0 mph 85 % 0.00 in 70 W/m2
09:46 54.1 °F 49.7 °F 29.57 in WSW 14.0 mph 27.0 mph 85 % 0.00 in 142 W/m2
09:51 54.1 °F 49.7 °F 29.57 in WSW 14.0 mph 27.0 mph 85 % 0.00 in 97 W/m2
09:56 54.3 °F 49.9 °F 29.57 in WSW 13.0 mph 28.0 mph 85 % 0.00 in 139 W/m2
10:01 54.3 °F 49.9 °F 29.56 in WSW 15.0 mph 28.0 mph 85 % 0.00 in 200 W/m2
10:06 54.7 °F 50.3 °F 29.56 in WSW 17.0 mph 30.0 mph 85 % 0.00 in 142 W/m2
10:11 54.7 °F 49.9 °F 29.57 in WSW 17.0 mph 30.0 mph 84 % 0.00 in 116 W/m2
10:16 54.7 °F 49.9 °F 29.57 in WSW 15.0 mph 25.0 mph 84 % 0.00 in 142 W/m2
10:21 54.7 °F 50.3 °F 29.57 in WSW 12.0 mph 24.0 mph 85 % 0.00 in 104 W/m2
10:26 54.7 °F 49.9 °F 29.57 in WSW 12.0 mph 23.0 mph 84 % 0.00 in 102 W/m2
10:31 54.9 °F 50.1 °F 29.57 in WSW 14.0 mph 26.0 mph 84 % 0.00 in 114 W/m2
10:36 54.7 °F 49.9 °F 29.57 in WSW 13.0 mph 26.0 mph 84 % 0.00 in 127 W/m2
10:41 54.9 °F 50.1 °F 29.57 in WSW 13.0 mph 24.0 mph 84 % 0.00 in 102 W/m2
10:46 54.9 °F 50.1 °F 29.57 in WSW 13.0 mph 25.0 mph 84 % 0.00 in 207 W/m2
10:51 55.0 °F 50.0 °F 29.57 in WSW 15.0 mph 27.0 mph 83 % 0.00 in 62 W/m2
10:56 55.2 °F 50.1 °F 29.57 in WSW 14.0 mph 27.0 mph 83 % 0.00 in 93 W/m2
11:01 55.4 °F 50.3 °F 29.56 in WSW 14.0 mph 28.0 mph 83 % 0.00 in 174 W/m2
11:06 55.6 °F 50.2 °F 29.56 in WSW 17.0 mph 29.0 mph 82 % 0.00 in 137 W/m2
11:11 55.8 °F 50.3 °F 29.55 in WSW 17.0 mph 29.0 mph 82 % 0.00 in 323 W/m2
11:16 56.5 °F 51.1 °F 29.55 in WSW 15.0 mph 29.0 mph 82 % 0.00 in 285 W/m2
11:21 57.4 °F 50.9 °F 29.55 in WSW 17.0 mph 34.0 mph 79 % 0.00 in 617 W/m2
11:26 57.6 °F 50.8 °F 29.54 in WSW 22.0 mph 37.0 mph 78 % 0.00 in 638 W/m2
11:31 57.6 °F 51.1 °F 29.54 in WSW 21.0 mph 37.0 mph 79 % 0.00 in 642 W/m2
11:36 57.9 °F 51.4 °F 29.55 in WSW 18.0 mph 33.0 mph 79 % 0.00 in 677 W/m2
11:41 58.1 °F 51.3 °F 29.54 in WSW 19.0 mph 35.0 mph 78 % 0.00 in 661 W/m2
11:47 57.9 °F 51.8 °F 29.54 in WSW 19.0 mph 35.0 mph 80 % 0.00 in 413 W/m2
11:52 57.7 °F 51.6 °F 29.55 in West 18.0 mph 33.0 mph 80 % 0.00 in 656 W/m2
11:57 57.6 °F 51.8 °F 29.54 in WSW 18.0 mph 34.0 mph 81 % 0.00 in 643 W/m2
12:02 57.9 °F 51.4 °F 29.55 in WSW 20.0 mph 34.0 mph 79 % 0.00 in 661 W/m2
12:07 57.9 °F 51.1 °F 29.54 in WSW 23.0 mph 39.0 mph 78 % 0.00 in 647 W/m2
12:12 57.9 °F 51.4 °F 29.54 in WSW 23.0 mph 39.0 mph 79 % 0.00 in 656 W/m2
12:17 58.1 °F 51.3 °F 29.54 in WSW 22.0 mph 37.0 mph 78 % 0.00 in 650 W/m2
12:22 58.3 °F 51.4 °F 29.54 in West 20.0 mph 36.0 mph 78 % 0.00 in 649 W/m2
12:27 58.5 °F 51.6 °F 29.54 in West 19.0 mph 31.0 mph 78 % 0.00 in 659 W/m2
12:32 58.6 °F 51.4 °F 29.55 in West 19.0 mph 31.0 mph 77 % 0.00 in 689 W/m2
12:37 58.6 °F 51.4 °F 29.55 in West 21.0 mph 34.0 mph 77 % 0.00 in 724 W/m2
12:42 58.6 °F 51.4 °F 29.54 in West 22.0 mph 34.0 mph 77 % 0.00 in 545 W/m2
12:47 58.6 °F 51.4 °F 29.54 in West 21.0 mph 32.0 mph 77 % 0.00 in 714 W/m2
12:52 58.5 °F 51.3 °F 29.53 in West 22.0 mph 36.0 mph 77 % 0.00 in 657 W/m2
12:57 58.1 °F 51.3 °F 29.53 in West 24.0 mph 41.0 mph 78 % 0.00 in 538 W/m2
13:02 58.1 °F 51.3 °F 29.53 in West 24.0 mph 41.0 mph 78 % 0.00 in 726 W/m2
13:07 57.7 °F 50.9 °F 29.53 in West 23.0 mph 39.0 mph 78 % 0.00 in 394 W/m2
13:12 57.7 °F 51.3 °F 29.53 in West 21.0 mph 34.0 mph 79 % 0.00 in 621 W/m2
13:17 58.1 °F 51.6 °F 29.54 in West 20.0 mph 33.0 mph 79 % 0.00 in 631 W/m2
13:22 58.1 °F 51.3 °F 29.54 in West 21.0 mph 37.0 mph 78 % 0.00 in 564 W/m2
13:27 58.1 °F 50.9 °F 29.53 in West 23.0 mph 37.0 mph 77 % 0.00 in 584 W/m2
13:32 58.1 °F 51.3 °F 29.54 in West 23.0 mph 36.0 mph 78 % 0.00 in 610 W/m2
13:37 58.3 °F 51.1 °F 29.53 in West 22.0 mph 39.0 mph 77 % 0.00 in 610 W/m2
13:42 58.3 °F 51.1 °F 29.54 in West 21.0 mph 39.0 mph 77 % 0.00 in 603 W/m2
13:47 58.1 °F 51.3 °F 29.52 in West 22.0 mph 37.0 mph 78 % 0.00 in 613 W/m2
13:52 58.3 °F 51.4 °F 29.52 in West 22.0 mph 41.0 mph 78 % 0.00 in 615 W/m2
13:57 58.1 °F 51.3 °F 29.52 in West 23.0 mph 41.0 mph 78 % 0.00 in 568 W/m2
14:02 57.7 °F 50.9 °F 29.52 in West 25.0 mph 40.0 mph 78 % 0.00 in 548 W/m2
14:07 57.7 °F 51.3 °F 29.52 in West 23.0 mph 40.0 mph 79 % 0.00 in 338 W/m2
14:12 57.6 °F 51.1 °F 29.52 in West 21.0 mph 34.0 mph 79 % 0.00 in 540 W/m2
14:17 57.6 °F 51.1 °F 29.52 in West 21.0 mph 38.0 mph 79 % 0.00 in 404 W/m2
14:22 57.6 °F 51.1 °F 29.52 in West 22.0 mph 38.0 mph 79 % 0.00 in 396 W/m2
14:27 57.6 °F 51.1 °F 29.52 in West 21.0 mph 37.0 mph 79 % 0.00 in 420 W/m2
14:32 57.4 °F 51.3 °F 29.53 in West 20.0 mph 37.0 mph 80 % 0.00 in 343 W/m2
14:37 57.2 °F 51.1 °F 29.52 in West 21.0 mph 37.0 mph 80 % 0.00 in 360 W/m2
14:42 57.2 °F 51.1 °F 29.52 in WSW 20.0 mph 37.0 mph 80 % 0.00 in 392 W/m2
14:47 57.4 °F 51.3 °F 29.52 in WSW 18.0 mph 31.0 mph 80 % 0.00 in 373 W/m2
14:52 57.6 °F 51.4 °F 29.52 in WSW 19.0 mph 33.0 mph 80 % 0.00 in 454 W/m2
14:57 57.7 °F 51.6 °F 29.52 in West 20.0 mph 33.0 mph 80 % 0.00 in 452 W/m2
15:02 58.3 °F 51.8 °F 29.52 in West 17.0 mph 31.0 mph 79 % 0.00 in 462 W/m2
15:07 58.5 °F 51.6 °F 29.52 in WSW 15.0 mph 28.0 mph 78 % 0.00 in 401 W/m2
15:12 58.6 °F 51.8 °F 29.52 in West 17.0 mph 28.0 mph 78 % 0.00 in 425 W/m2
15:17 58.5 °F 51.6 °F 29.52 in West 19.0 mph 37.0 mph 78 % 0.00 in 425 W/m2
15:22 58.3 °F 51.4 °F 29.52 in West 20.0 mph 37.0 mph 78 % 0.00 in 399 W/m2
15:27 58.3 °F 51.4 °F 29.52 in West 18.0 mph 33.0 mph 78 % 0.00 in 399 W/m2
15:32 58.3 °F 51.4 °F 29.52 in West 18.0 mph 30.0 mph 78 % 0.00 in 403 W/m2
15:37 58.3 °F 51.4 °F 29.52 in West 17.0 mph 29.0 mph 78 % 0.00 in 327 W/m2
15:42 58.3 °F 51.4 °F 29.53 in West 16.0 mph 29.0 mph 78 % 0.00 in 236 W/m2
15:47 58.3 °F 51.4 °F 29.52 in West 15.0 mph 26.0 mph 78 % 0.00 in 301 W/m2
15:53 57.9 °F 51.4 °F 29.52 in West 17.0 mph 33.0 mph 79 % 0.00 in 232 W/m2
15:58 57.9 °F 51.4 °F 29.53 in West 16.0 mph 33.0 mph 79 % 0.00 in 339 W/m2
16:03 58.3 °F 51.4 °F 29.53 in West 12.0 mph 26.0 mph 78 % 0.00 in 306 W/m2
16:08 58.5 °F 51.6 °F 29.53 in West 14.0 mph 26.0 mph 78 % 0.00 in 281 W/m2
16:13 58.3 °F 51.1 °F 29.53 in West 17.0 mph 30.0 mph 77 % 0.00 in 269 W/m2
16:18 58.1 °F 50.9 °F 29.53 in West 17.0 mph 30.0 mph 77 % 0.00 in 272 W/m2
16:23 58.1 °F 51.3 °F 29.53 in West 15.0 mph 28.0 mph 78 % 0.00 in 234 W/m2
16:33 57.9 °F 51.4 °F 29.53 in West 16.0 mph 27.0 mph 79 % 0.00 in 209 W/m2
16:38 57.7 °F 51.3 °F 29.53 in West 15.0 mph 27.0 mph 79 % 0.00 in 211 W/m2
16:44 57.9 °F 51.4 °F 29.53 in West 13.0 mph 24.0 mph 79 % 0.00 in 202 W/m2
16:49 57.9 °F 51.4 °F 29.54 in West 13.0 mph 24.0 mph 79 % 0.00 in 197 W/m2
16:53 57.6 °F 51.1 °F 29.54 in West 13.0 mph 27.0 mph 79 % 0.00 in 120 W/m2
16:54 57.6 °F 51.1 °F 29.54 in West 13.0 mph 27.0 mph 79 % 0.00 in 120 W/m2
16:59 57.4 °F 51.3 °F 29.54 in West 16.0 mph 27.0 mph 80 % 0.00 in 162 W/m2
17:04 57.0 °F 50.9 °F 29.55 in West 16.0 mph 25.0 mph 80 % 0.00 in 141 W/m2
17:09 56.8 °F 51.1 °F 29.55 in West 15.0 mph 25.0 mph 81 % 0.00 in 70 W/m2
17:14 56.3 °F 50.9 °F 29.56 in West 15.0 mph 26.0 mph 82 % 0.00 in 21 W/m2
17:24 55.8 °F 50.7 °F 29.56 in West 13.0 mph 26.0 mph 83 % 0.00 in 28 W/m2
17:29 55.8 °F 51.0 °F 29.57 in West 14.0 mph 26.0 mph 84 % 0.00 in 16 W/m2
17:34 55.6 °F 50.8 °F 29.57 in West 10.0 mph 23.0 mph 84 % 0.00 in 16 W/m2
17:39 55.4 °F 50.6 °F 29.57 in West 9.0 mph 18.0 mph 84 % 0.00 in 25 W/m2
17:44 55.4 °F 50.6 °F 29.58 in WNW 9.0 mph 18.0 mph 84 % 0.00 in 21 W/m2
17:49 55.2 °F 50.5 °F 29.58 in West 8.0 mph 18.0 mph 84 % 0.00 in 28 W/m2
17:54 55.2 °F 50.5 °F 29.58 in WSW 9.0 mph 18.0 mph 84 % 0.00 in 12 W/m2
17:59 55.0 °F 50.0 °F 29.58 in West 10.0 mph 16.0 mph 83 % 0.00 in 9 W/m2
18:04 54.9 °F 49.8 °F 29.59 in West 9.0 mph 16.0 mph 83 % 0.00 in 7 W/m2
18:09 54.7 °F 49.9 °F 29.59 in West 9.0 mph 16.0 mph 84 % 0.00 in 5 W/m2
18:14 54.5 °F 49.8 °F 29.59 in West 8.0 mph 14.0 mph 84 % 0.00 in 0 W/m2
18:19 54.3 °F 49.6 °F 29.59 in WNW 7.0 mph 14.0 mph 84 % 0.00 in 0 W/m2
18:24 54.1 °F 49.4 °F 29.59 in West 5.0 mph 9.0 mph 84 % 0.00 in 0 W/m2
18:29 54.0 °F 49.2 °F 29.60 in West 4.0 mph 8.0 mph 84 % 0.00 in 0 W/m2
18:34 53.8 °F 49.1 °F 29.60 in WNW 2.0 mph 7.0 mph 84 % 0.00 in 0 W/m2
18:39 53.6 °F 48.9 °F 29.60 in WSW 3.0 mph 7.0 mph 84 % 0.00 in 0 W/m2
18:45 53.4 °F 48.7 °F 29.61 in WSW 4.0 mph 8.0 mph 84 % 0.00 in 0 W/m2
18:49 53.1 °F 48.4 °F 29.62 in WSW 4.0 mph 11.0 mph 84 % 0.00 in 0 W/m2
18:55 52.9 °F 48.2 °F 29.62 in WSW 5.0 mph 11.0 mph 84 % 0.00 in 0 W/m2
19:00 52.5 °F 47.8 °F 29.62 in WSW 6.0 mph 11.0 mph 84 % 0.00 in 0 W/m2
19:05 52.5 °F 47.8 °F 29.63 in WSW 5.0 mph 10.0 mph 84 % 0.00 in 0 W/m2
19:10 52.3 °F 48.0 °F 29.63 in WSW 4.0 mph 8.0 mph 85 % 0.00 in 0 W/m2
19:15 52.3 °F 47.6 °F 29.64 in WSW 4.0 mph 8.0 mph 84 % 0.00 in 0 W/m2
19:20 52.3 °F 47.6 °F 29.63 in West 5.0 mph 8.0 mph 84 % 0.00 in 0 W/m2
19:25 52.3 °F 47.6 °F 29.63 in WNW 4.0 mph 8.0 mph 84 % 0.00 in 0 W/m2
19:30 52.2 °F 47.2 °F 29.63 in WNW 4.0 mph 9.0 mph 83 % 0.00 in 0 W/m2
19:35 52.2 °F 47.2 °F 29.63 in WNW 6.0 mph 9.0 mph 83 % 0.00 in 0 W/m2
19:40 52.2 °F 46.8 °F 29.63 in WNW 7.0 mph 11.0 mph 82 % 0.00 in 0 W/m2
19:50 52.0 °F 46.7 °F 29.62 in WNW 8.0 mph 13.0 mph 82 % 0.00 in 0 W/m2
19:55 52.0 °F 46.7 °F 29.62 in West 8.0 mph 13.0 mph 82 % 0.00 in 0 W/m2
20:00 51.8 °F 46.8 °F 29.62 in West 7.0 mph 12.0 mph 83 % 0.00 in 0 W/m2
20:05 51.4 °F 46.4 °F 29.62 in West 7.0 mph 11.0 mph 83 % 0.00 in 0 W/m2
20:10 51.3 °F 46.3 °F 29.62 in West 8.0 mph 14.0 mph 83 % 0.00 in 0 W/m2
20:20 51.1 °F 46.4 °F 29.62 in WNW 7.0 mph 11.0 mph 84 % 0.00 in 0 W/m2
20:25 51.1 °F 46.4 °F 29.62 in WNW 7.0 mph 11.0 mph 84 % 0.00 in 0 W/m2
20:30 50.7 °F 46.1 °F 29.62 in West 6.0 mph 8.0 mph 84 % 0.00 in 0 W/m2
20:35 50.5 °F 46.2 °F 29.62 in West 6.0 mph 8.0 mph 85 % 0.00 in 0 W/m2
20:40 50.4 °F 46.0 °F 29.62 in West 6.0 mph 9.0 mph 85 % 0.00 in 0 W/m2
20:45 50.4 °F 46.0 °F 29.62 in West 6.0 mph 9.0 mph 85 % 0.00 in 0 W/m2
20:50 50.2 °F 46.2 °F 29.62 in WNW 6.0 mph 10.0 mph 86 % 0.00 in 0 W/m2
20:55 50.2 °F 46.2 °F 29.62 in WNW 6.0 mph 10.0 mph 86 % 0.00 in 0 W/m2
21:00 50.2 °F 46.2 °F 29.62 in WNW 6.0 mph 9.0 mph 86 % 0.00 in 0 W/m2
21:05 50.2 °F 46.2 °F 29.62 in WNW 4.0 mph 9.0 mph 86 % 0.00 in 0 W/m2
21:10 50.0 °F 46.0 °F 29.62 in WNW 2.0 mph 5.0 mph 86 % 0.00 in 0 W/m2
21:15 50.0 °F 46.3 °F 29.62 in WNW 1.0 mph 5.0 mph 87 % 0.00 in 0 W/m2
21:20 50.0 °F 46.3 °F 29.62 in Calm   1.0 mph 87 % 0.00 in 0 W/m2
21:25 49.8 °F 46.1 °F 29.62 in Calm     87 % 0.00 in 0 W/m2
21:30 49.8 °F 46.1 °F 29.62 in Calm     87 % 0.00 in 0 W/m2
21:35 49.8 °F 46.4 °F 29.62 in Calm     88 % 0.00 in 0 W/m2
21:40 49.6 °F 46.2 °F 29.62 in Calm     88 % 0.00 in 0 W/m2
21:46 49.8 °F 46.4 °F 29.62 in Calm     88 % 0.00 in 0 W/m2
21:51 49.8 °F 46.7 °F 29.62 in Calm   1.0 mph 89 % 0.00 in 0 W/m2
22:08 50.0 °F 46.9 °F 29.62 in Calm     89 % 0.00 in 0 W/m2
22:13 50.0 °F 46.9 °F 29.61 in Calm     89 % 0.00 in 0 W/m2
22:18 50.0 °F 46.9 °F 29.61 in Calm     89 % 0.00 in 0 W/m2
22:23 50.2 °F 47.1 °F 29.61 in Calm   1.0 mph 89 % 0.00 in 0 W/m2
22:29 50.2 °F 47.1 °F 29.61 in Calm   2.0 mph 89 % 0.00 in 0 W/m2
22:34 50.2 °F 47.4 °F 29.61 in Calm   3.0 mph 90 % 0.00 in 0 W/m2
22:39 50.2 °F 47.4 °F 29.60 in Calm   3.0 mph 90 % 0.00 in 0 W/m2
22:44 50.2 °F 47.4 °F 29.60 in Calm   1.0 mph 90 % 0.00 in 0 W/m2
22:49 50.2 °F 47.4 °F 29.61 in Calm   1.0 mph 90 % 0.00 in 0 W/m2
22:54 50.4 °F 47.8 °F 29.61 in Calm   1.0 mph 91 % 0.00 in 0 W/m2
22:59 50.4 °F 47.8 °F 29.61 in Calm     91 % 0.00 in 0 W/m2
23:04 50.5 °F 48.0 °F 29.61 in Calm     91 % 0.00 in 0 W/m2
23:09 50.5 °F 48.0 °F 29.61 in Calm     91 % 0.00 in 0 W/m2
23:14 50.5 °F 48.0 °F 29.61 in Calm     91 % 0.00 in 0 W/m2
23:19 50.4 °F 47.8 °F 29.61 in Calm   1.0 mph 91 % 0.00 in 0 W/m2
23:24 50.4 °F 48.1 °F 29.61 in Calm   1.0 mph 92 % 0.00 in 0 W/m2
23:29 50.4 °F 48.1 °F 29.61 in Calm   1.0 mph 92 % 0.00 in 0 W/m2
23:34 50.4 °F 48.1 °F 29.61 in Calm   2.0 mph 92 % 0.00 in 0 W/m2
23:39 50.2 °F 47.9 °F 29.61 in Calm   2.0 mph 92 % 0.00 in 0 W/m2
23:44 50.2 °F 47.9 °F 29.61 in WNW 1.0 mph 5.0 mph 92 % 0.00 in 0 W/m2
23:49 50.2 °F 48.2 °F 29.61 in SSW 1.0 mph 5.0 mph 93 % 0.00 in 0 W/m2
23:54 50.2 °F 48.2 °F 29.61 in SE 1.0 mph 5.0 mph 93 % 0.00 in 0 W/m2
23:59 50.2 °F 48.2 °F 29.60 in SE 2.0 mph 5.0 mph 93 % 0.00 in 0 W/m2
Delerius-Weather
Compliments of Weather Underground - 2.25 mb

Data updates at regular intervals.